VE2BTZ Weather Reports


Display with metric or nautical units.
time (UTC)temp
F
wind
direction
speed
MPH
gust
MPH
rain 1hr
in
rain 24hr
in
rain mn
in
humidity
%
barometer
mb
20260507040004 44 256 0.0 0.0 0.00 0.31 0.00 90 1008.2
20260507035504 44 267 0.0 3.0 0.00 0.31 0.31 90 1008.3
20260507035003 44 250 1.0 7.0 0.00 0.31 0.31 90 1008.3
20260507034503 44 239 0.0 0.0 0.00 0.31 0.31 90 1008.3
20260507033004 44 246 0.0 0.0 0.00 0.31 0.31 90 1008.4
20260507032503 44 246 0.0 0.0 0.00 0.31 0.31 89 1008.4
20260507032004 44 249 0.0 0.0 0.00 0.31 0.31 89 1008.4
20260507031004 44 266 0.0 0.0 0.00 0.32 0.31 89 1008.5
20260507030503 44 273 0.0 0.0 0.00 0.32 0.31 89 1008.5
20260507025503 44 271 0.0 0.0 0.00 0.32 0.31 89 1008.5
20260507025004 45 270 0.0 0.0 0.00 0.32 0.31 89 1008.5
20260507024004 45 271 0.0 0.0 0.00 0.32 0.31 89 1008.6
20260507023503 45 270 0.0 0.0 0.00 0.32 0.31 89 1008.6
20260507023004 45 271 0.0 0.0 0.00 0.32 0.31 88 1008.6
20260507022503 45 271 0.0 0.0 0.00 0.32 0.31 88 1008.6
20260507022003 45 273 0.0 0.0 0.00 0.32 0.31 88 1008.6
20260507021503 45 271 0.0 0.0 0.00 0.32 0.31 88 1008.6
20260507021004 45 270 0.0 0.0 0.00 0.32 0.31 88 1008.6
20260507020503 45 273 0.0 0.0 0.00 0.32 0.31 88 1008.7
20260507015503 45 271 0.0 0.0 0.00 0.32 0.31 87 1008.8
20260507015004 46 271 0.0 0.0 0.00 0.32 0.31 87 1008.8
20260507014503 46 271 0.0 0.0 0.00 0.32 0.31 87 1008.9
20260507013004 46 271 0.0 0.0 0.00 0.32 0.31 87 1009.0
20260507012503 46 271 0.0 0.0 0.00 0.32 0.31 86 1008.9
20260507012004 46 271 0.0 0.0 0.00 0.32 0.31 86 1008.9
20260507011503 46 271 0.0 0.0 0.00 0.32 0.31 86 1008.9
20260507011004 46 271 0.0 0.0 0.00 0.32 0.31 86 1008.9
20260507010503 46 271 0.0 0.0 0.00 0.32 0.31 86 1008.8
20260507010004 46 273 0.0 0.0 0.00 0.32 0.31 86 1008.7
20260507005503 46 272 0.0 0.0 0.00 0.32 0.31 86 1008.8
20260507005004 46 270 0.0 0.0 0.00 0.32 0.31 86 1008.8
20260507004003 46 272 0.0 0.0 0.00 0.32 0.31 85 1008.7
20260507003503 46 272 0.0 0.0 0.00 0.32 0.31 85 1008.6
20260507003004 46 272 0.0 0.0 0.00 0.32 0.31 85 1008.6
20260507002503 46 273 0.0 0.0 0.00 0.32 0.31 84 1008.5
20260507001503 46 272 0.0 0.0 0.00 0.32 0.31 84 1008.3
20260507001004 46 272 0.0 0.0 0.00 0.32 0.31 83 1008.4
20260507000503 46 270 0.0 0.0 0.00 0.32 0.31 83 1008.3
20260507000004 46 270 0.0 0.0 0.00 0.32 0.31 83 1008.2
20260506235504 46 270 0.0 0.0 0.00 0.32 0.31 83 1008.2
20260506235005 46 275 0.0 0.0 0.00 0.32 0.31 82 1008.2
20260506234504 46 271 0.0 0.0 0.00 0.32 0.31 82 1008.3
20260506234004 46 271 0.0 0.0 0.00 0.32 0.31 81 1008.3
20260506233503 46 270 0.0 0.0 0.00 0.32 0.31 81 1008.2
20260506233003 47 274 0.0 0.0 0.00 0.32 0.31 81 1008.1
20260506232503 47 281 0.0 0.0 0.00 0.32 0.31 80 1008.0
20260506232003 47 280 0.0 0.0 0.00 0.32 0.31 80 1008.0
20260506231003 47 281 0.0 0.0 0.00 0.32 0.31 79 1008.0
20260506230504 47 283 0.0 0.0 0.00 0.32 0.31 79 1008.0
20260506230004 47 281 0.0 0.0 0.00 0.32 0.31 78 1008.0
20260506225503 47 282 0.0 0.0 0.00 0.32 0.31 78 1008.0
20260506225004 47 283 0.0 0.0 0.00 0.32 0.31 78 1008.0
20260506224503 47 271 0.0 0.0 0.00 0.32 0.31 79 1008.0
20260506224003 47 272 0.0 0.0 0.00 0.32 0.31 79 1008.0
20260506223004 47 262 0.0 3.0 0.00 0.32 0.31 79 1007.9
20260506222503 47 261 1.0 3.0 0.00 0.32 0.31 80 1008.0
20260506222004 47 261 0.0 3.0 0.00 0.32 0.31 80 1008.1
20260506221003 47 245 1.0 6.0 0.00 0.32 0.31 80 1008.1
20260506220504 47 253 0.0 3.0 0.00 0.32 0.31 80 1008.1
20260506220004 47 274 2.0 3.0 0.00 0.32 0.31 80 1008.0
20260506215503 47 275 2.0 3.0 0.00 0.32 0.31 81 1008.1
20260506215004 47 275 2.0 3.0 0.00 0.32 0.31 82 1008.1
20260506214504 47 269 2.0 3.0 0.00 0.32 0.31 82 1008.1
20260506214003 47 267 0.0 3.0 0.00 0.32 0.31 83 1008.1
20260506213503 47 266 0.0 0.0 0.00 0.32 0.31 83 1008.0
20260506213003 47 266 0.0 0.0 0.00 0.32 0.31 83 1008.0
20260506212504 47 266 0.0 0.0 0.00 0.32 0.31 84 1008.0
20260506212003 47 266 0.0 0.0 0.00 0.32 0.31 85 1008.0
20260506211503 47 266 0.0 0.0 0.00 0.32 0.31 85 1007.9
20260506211004 47 266 0.0 3.0 0.00 0.32 0.31 85 1008.0
20260506210503 46 267 1.0 3.0 0.00 0.32 0.31 84 1008.0
20260506210004 47 260 1.0 3.0 0.00 0.32 0.31 85 1008.2
20260506205005 47 277 1.0 3.0 0.00 0.32 0.31 85 1008.4
20260506204004 47 274 2.0 3.0 0.00 0.32 0.31 86 1008.2
20260506203503 47 266 0.0 3.0 0.00 0.32 0.31 86 1008.2
20260506203003 47 266 1.0 7.0 0.00 0.32 0.31 85 1008.3
20260506202503 47 289 1.0 5.0 0.00 0.32 0.31 85 1008.4
20260506202003 47 283 0.0 3.0 0.00 0.32 0.31 85 1008.3
20260506200504 47 277 0.0 3.0 0.00 0.32 0.31 86 1008.3
20260506200004 47 277 1.0 3.0 0.00 0.32 0.31 86 1008.3
20260506195503 47 282 1.0 7.0 0.00 0.32 0.31 86 1008.4
20260506195003 47 298 1.0 6.0 0.00 0.32 0.31 87 1008.5
20260506194504 47 290 0.0 2.0 0.00 0.32 0.31 86 1008.4
20260506193503 47 286 1.0 6.0 0.00 0.32 0.31 85 1008.6
20260506193004 47 291 1.0 3.0 0.00 0.32 0.31 84 1008.6
20260506192503 47 303 1.0 3.0 0.00 0.32 0.31 85 1008.6
20260506192004 47 288 0.0 3.0 0.00 0.32 0.31 84 1008.7
20260506191503 47 16 0.0 0.0 0.00 0.32 0.31 85 1008.5
20260506190503 47 114 0.0 0.0 0.00 0.32 0.31 86 1008.4
20260506190003 47 112 0.0 0.0 0.00 0.32 0.31 85 1008.5
20260506185003 47 112 0.0 0.0 0.00 0.32 0.31 86 1008.5
20260506184504 47 112 0.0 0.0 0.00 0.32 0.31 88 1008.3
20260506184003 47 110 0.0 0.0 0.00 0.32 0.31 88 1008.3
20260506183504 46 110 0.0 0.0 0.00 0.32 0.31 88 1008.3
20260506182503 47 110 0.0 0.0 0.01 0.32 0.31 89 1008.4
20260506182004 46 283 0.0 0.0 0.01 0.32 0.31 89 1008.3
20260506181503 46 284 0.0 0.0 0.01 0.32 0.31 90 1008.4
20260506181004 46 284 0.0 0.0 0.01 0.32 0.31 90 1008.5
20260506180503 46 284 0.0 0.0 0.01 0.32 0.31 90 1008.6
20260506180004 46 284 0.0 0.0 0.01 0.32 0.31 90 1008.7
20260506175504 46 284 0.0 0.0 0.01 0.32 0.31 90 1008.8
20260506175003 45 284 0.0 0.0 0.01 0.32 0.31 90 1008.9
20260506174503 45 284 0.0 0.0 0.01 0.32 0.31 90 1009.0
20260506174004 45 284 0.0 0.0 0.01 0.32 0.31 90 1009.1
20260506173005 45 284 0.0 0.0 0.02 0.32 0.31 90 1009.0
20260506172504 45 283 0.0 0.0 0.01 0.31 0.31 90 1009.0
20260506171503 44 284 0.0 0.0 0.01 0.31 0.31 89 1009.2
20260506171004 44 283 0.0 0.0 0.02 0.31 0.31 89 1009.4
20260506170503 44 283 0.0 0.0 0.02 0.31 0.31 90 1009.4
20260506170004 44 286 0.0 0.0 0.02 0.31 0.31 90 1009.5
20260506165503 44 283 0.0 0.0 0.02 0.31 0.31 90 1009.5
20260506165004 44 285 0.0 0.0 0.03 0.31 0.31 90 1009.4
20260506164503 44 287 0.0 0.0 0.03 0.31 0.31 90 1009.3
20260506164004 44 292 0.0 0.0 0.04 0.31 0.31 90 1009.4
20260506163503 44 286 0.0 0.0 0.05 0.31 0.31 90 1009.4
20260506162504 44 287 0.0 0.0 0.06 0.31 0.30 91 1009.6
20260506162003 44 284 0.0 0.0 0.06 0.31 0.30 91 1009.5
20260506161504 44 288 0.0 0.0 0.07 0.31 0.30 91 1009.6
20260506161003 44 288 0.0 0.0 0.06 0.30 0.29 91 1009.6
20260506160503 44 286 0.0 0.0 0.07 0.30 0.29 91 1009.8
20260506160003 43 284 0.0 0.0 0.08 0.30 0.29 91 1009.8
20260506155504 43 284 0.0 0.0 0.07 0.29 0.28 91 1009.9
20260506155003 43 286 0.0 0.0 0.07 0.28 0.28 91 1009.9
20260506153503 44 284 0.0 0.0 0.06 0.27 0.26 91 1010.0
20260506152503 44 284 0.0 0.0 0.06 0.25 0.24 91 1010.0
20260506152003 44 284 0.0 0.0 0.06 0.24 0.24 91 1010.0
20260506150504 43 273 0.0 3.0 0.06 0.23 0.22 91 1010.1
20260506150004 43 262 0.0 0.0 0.05 0.22 0.21 91 1010.1
20260506145503 43 275 0.0 0.0 0.05 0.22 0.21 91 1010.1
20260506145003 44 272 0.0 0.0 0.04 0.21 0.20 91 1010.1
20260506144503 44 269 0.0 0.0 0.05 0.21 0.20 91 1010.0
20260506144003 44 267 0.0 0.0 0.04 0.20 0.20 91 1010.0
20260506143504 44 266 0.0 0.0 0.04 0.20 0.20 90 1009.9
20260506142004 43 267 0.0 2.0 0.03 0.19 0.18 90 1009.9
20260506141503 43 269 1.0 3.0 0.02 0.18 0.17 90 1009.9
20260506141003 43 255 0.0 0.0 0.03 0.18 0.17 90 1009.9
20260506140503 43 249 0.0 3.0 0.02 0.17 0.17 90 1009.9
20260506140004 43 247 2.0 3.0 0.02 0.17 0.17 90 1010.0
20260506135504 44 262 2.0 6.0 0.03 0.17 0.17 90 1009.9
20260506135003 44 257 0.0 0.0 0.03 0.17 0.17 90 1009.8
20260506134504 44 248 0.0 0.0 0.02 0.17 0.16 91 1009.8
20260506134003 44 244 0.0 0.0 0.03 0.17 0.16 90 1009.8
20260506133503 44 247 0.0 0.0 0.03 0.17 0.16 91 1009.8
20260506132504 44 246 0.0 0.0 0.03 0.16 0.15 91 1009.8
20260506132005 44 246 0.0 0.0 0.03 0.16 0.15 91 1009.7
20260506130503 44 248 0.0 0.0 0.04 0.15 0.14 91 1009.8
20260506130003 44 250 0.0 0.0 0.05 0.15 0.14 91 1009.7
20260506125003 44 248 0.0 0.0 0.05 0.14 0.13 90 1009.9
20260506124504 44 248 0.0 1.0 0.06 0.14 0.13 90 1010.0
20260506124003 44 250 1.0 3.0 0.06 0.13 0.13 90 1010.0
20260506123503 44 250 0.0 3.0 0.06 0.13 0.13 90 1010.0
20260506123004 44 251 0.0 0.0 0.06 0.13 0.13 90 1010.0
20260506122503 44 250 0.0 0.0 0.06 0.13 0.12 90 1010.1
20260506122003 44 250 0.0 2.0 0.06 0.13 0.12 90 1010.0
20260506121505 44 251 1.0 3.0 0.06 0.12 0.11 90 1010.0
20260506121003 44 253 0.0 0.0 0.06 0.11 0.10 90 1009.9
20260506120004 44 264 0.0 3.0 0.06 0.10 0.09 90 1009.9
20260506115505 44 262 1.0 6.0 0.06 0.10 0.09 90 1009.9
20260506115004 44 267 1.0 6.0 0.06 0.09 0.09 90 1010.0
20260506114003 45 235 1.0 3.0 0.05 0.08 0.07 90 1010.1
20260506113504 45 251 0.0 3.0 0.05 0.08 0.07 90 1010.2
20260506113003 45 248 0.0 0.0 0.05 0.07 0.06 90 1010.3
20260506112503 45 243 0.0 0.0 0.04 0.06 0.06 90 1010.3
20260506112004 45 243 0.0 0.0 0.04 0.06 0.06 90 1010.4
20260506111503 45 243 0.0 0.0 0.03 0.06 0.05 89 1010.4
20260506111003 45 244 0.0 2.0 0.03 0.05 0.04 89 1010.3
20260506110004 45 218 0.0 0.0 0.03 0.04 0.03 89 1010.2
20260506105503 45 230 0.0 0.0 0.03 0.04 0.03 89 1010.1
20260506105003 46 301 0.0 1.0 0.02 0.03 0.02 89 1009.9
20260506104504 46 236 0.0 0.0 0.02 0.03 0.02 89 1009.6
20260506104003 46 236 0.0 0.0 0.02 0.03 0.02 88 1009.6
20260506103003 46 236 0.0 0.0 0.02 0.02 0.02 88 1009.6
20260506102504 46 236 0.0 0.0 0.02 0.02 0.02 87 1009.4
20260506102003 46 240 0.0 0.0 0.02 0.02 0.02 87 1009.5
20260506101504 46 236 1.0 3.0 0.02 0.02 0.02 87 1009.4
20260506101003 46 251 0.0 3.0 0.01 0.02 0.01 87 1009.3
20260506100003 46 244 1.0 3.0 0.00 0.01 0.00 86 1009.5
20260506095503 46 275 1.0 3.0 0.00 0.01 0.00 86 1009.5
20260506095003 46 264 2.0 7.0 0.00 0.01 0.00 85 1009.3
20260506094504 47 241 2.0 6.0 0.00 0.01 0.00 85 1009.3
20260506094004 47 259 2.0 7.0 0.00 0.01 0.00 84 1009.2
20260506093004 47 251 5.0 9.0 0.00 0.01 0.00 84 1009.3
20260506090503 47 237 0.0 3.0 0.00 0.01 0.00 84 1009.0
20260506090004 47 266 1.0 6.0 0.00 0.01 0.00 84 1009.0
20260506085503 47 264 1.0 6.0 0.00 0.01 0.00 84 1008.9
20260506085004 47 261 1.0 6.0 0.00 0.01 0.00 84 1008.7
20260506084503 47 249 3.0 7.0 0.00 0.01 0.00 84 1008.7
20260506084004 47 273 2.0 8.0 0.00 0.01 0.00 84 1008.9
20260506083504 47 245 2.0 6.0 0.00 0.01 0.00 84 1009.0
20260506083003 47 262 2.0 8.0 0.00 0.01 0.00 84 1009.2
20260506082503 47 267 2.0 7.0 0.00 0.01 0.00 84 1009.1
20260506082003 47 270 3.0 12.0 0.00 0.01 0.00 84 1009.1
20260506081503 48 253 1.0 7.0 0.00 0.01 0.00 84 1009.2
20260506080504 48 268 1.0 6.0 0.00 0.01 0.00 83 1008.9
20260506073503 48 241 2.0 7.0 0.00 0.01 0.00 83 1009.2
20260506073003 48 246 3.0 12.0 0.00 0.01 0.00 83 1009.2
20260506072503 48 248 3.0 10.0 0.00 0.01 0.00 83 1009.2
20260506072003 48 262 1.0 10.0 0.00 0.01 0.00 83 1009.1
20260506071504 48 249 5.0 12.0 0.00 0.01 0.00 83 1009.0
20260506071003 48 256 3.0 9.0 0.00 0.01 0.00 83 1008.8
20260506070503 48 253 3.0 7.0 0.00 0.01 0.00 83 1008.7
20260506062503 49 232 3.0 8.0 0.00 0.01 0.00 85 1008.8
20260506062003 49 234 1.0 3.0 0.00 0.01 0.00 85 1008.5
20260506061503 49 248 2.0 3.0 0.00 0.01 0.00 85 1008.5
20260506061003 49 230 3.0 8.0 0.00 0.01 0.00 85 1008.5
20260506060504 49 224 2.0 7.0 0.00 0.01 0.00 85 1008.4
20260506051004 49 243 2.0 7.0 0.00 0.01 0.00 83 1008.6
20260506050503 49 245 2.0 8.0 0.00 0.01 0.00 83 1008.5
20260506045004 49 217 2.0 7.0 0.00 0.01 0.00 84 1008.3
20260506044503 49 232 2.0 9.0 0.00 0.01 0.00 84 1008.3
20260506043503 50 234 2.0 10.0 0.00 0.01 0.00 85 1008.3
20260506043003 50 232 2.0 7.0 0.00 0.01 0.00 85 1008.1
20260506042503 50 244 2.0 8.0 0.00 0.01 0.00 85 1007.9
20260506042004 50 239 3.0 13.0 0.00 0.01 0.00 85 1007.8
20260506041503 50 251 3.0 9.0 0.01 0.01 0.00 86 1007.8